Regional Weather Roundup
Issued by NWS Green Bay, WI

Home | Current Version | Previous Version | Text Only | Print | Product List | Glossary On
Versions: 1 2 3 4 5 6 7 8 9 10 11 12 13 14 15 16 17 18 19 20 21 22 23 24 25 26 27 28 29 30 31 32 33 34 35 36 37 38 39 40 41 42 43 44 45 46 47 48 49 50
615
ASUS43 KGRB 231811
RWRGRB

NORTH-CENTRAL AND NORTHEAST WISCONSIN REGIONAL WEATHER ROUNDUP
NATIONAL WEATHER SERVICE GREEN BAY WI
1200 PM CST MON JAN 23 2017

WIZ005-009-010>012-018-019-231900-
NORTH CENTRAL WISCONSIN

CITY           SKY/WX    TMP DP  RH WIND       PRES   REMARKS
IRONWOOD       FOG       36  35  96 CALM      29.77F VSB 1/4
MANITOWISH WTR CLOUDY    33  33 100 CALM      29.75S
ARBOR VITAE    CLOUDY    37  36  96 CALM      29.74F
EAGLE RIVER    CLOUDY    34  34 100 CALM      29.74F
LAND O LAKES   CLOUDY    35  35 100 CALM      29.76F
RHINELANDER    CLOUDY    35  34  96 CALM      29.75F
PHILLIPS       CLOUDY    34  34 100 CALM      29.76F
ANTIGO         CLOUDY    34  33  94 CALM      29.76S
TOMAHAWK       CLOUDY    35  33  94 CALM      29.76F
MERRILL        CLOUDY    35  34  97 CALM        N/A
$$

WIZ013-073-231900-
NORTHEAST WISCONSIN

CITY           SKY/WX    TMP DP  RH WIND       PRES   REMARKS
IRON MOUNTAIN  CLOUDY    36  32  85 N6        29.74F FOG
MARINETTE      NOT AVBL
OCONTO         CLOUDY    36  34  90 NW5       29.76F
$$

WIZ017-030-035>037-045-231900-
CENTRAL WISCONSIN

CITY           SKY/WX    TMP DP  RH WIND       PRES   REMARKS
MEDFORD        FOG       33  33 100 W5        29.76F VSB 1/4
WAUSAU         CLOUDY    34  33  96 W5        29.75F
MOSINEE        CLOUDY    34  34 100 W3        29.77F
MARSHFIELD     FOG       34  33  96 NW5       29.76F VSB 3/4
WISC RAPIDS    CLOUDY    35  35 100 NW5       29.79F
STEVENS POINT  CLOUDY    35  34  95 CALM      29.78F
WAUPACA        CLOUDY    39  35  84 CALM      29.78F
SHAWANO        CLOUDY    40  35  83 CALM      29.77F
CLINTONVILLE   CLOUDY    37  34  87 NW3       29.78F
WAUTOMA        CLOUDY    37  36  96 NW5       29.79F
$$

WIZ038-039-048-051-231900-
FOX VALLEY

CITY           SKY/WX    TMP DP  RH WIND       PRES   REMARKS
NWS GREEN BAY  CLOUDY    39  36  89 NW8       29.77F
APPLETON       CLOUDY    37  37 100 NW5       29.76F
OSHKOSH        CLOUDY    37  35  92 NW6       29.77F
FOND DU LAC    CLOUDY    38  34  85 NW7       29.77F
$$

WIZ022-050-052-231900-
EAST CENTRAL WISCONSIN

CITY           SKY/WX    TMP DP  RH WIND       PRES   REMARKS
EPHRAIM        FOG       35  35 100 N6        29.74F VSB<1/4
WASHINGTON ISL FOG       34  34 100 N6        29.75F VSB<1/4
STURGEON BAY   FOG       36  36 100 NW6       29.76F VSB 1/4
MANITOWOC      CLOUDY    38  37  97 MISG      29.77F
SHEBOYGAN      CLOUDY    39  36  89 W7        29.76S
$$

LMZ563-521-522-541>543-231900-
LAKESHORE

STATION/POSITION TIME  TEMP    WIND        PRES    VSBY  WAVE
                       AIR SEA DIR/SP/G                  HT/PER
                 (UTC) (F)     (DEG/KT/KT) (MB)    (MI)  (FT/S)
SHEBOYGAN LKSHOR 1800   39     300/  5/  7 1008.0F
KEWAUNEE LKSHORE 1742   37     300/  5/  8 1007.4F
NORTHPORT PIER   1740   34     310/  5/  6 1007.8F
SISTER BAY LKSHO 1720   34      10/  8/  9   N/A
MENOMINEE LKSHOR 1742          330/  4/  5 1007.2F
$$




USA.gov is the U.S. government's official web portal to all federal, state and local government web resources and services.